Regional Weather Roundup
Issued by NWS

Home | Current Version | Previous Version | Graphics & Text | Print | Product List | Glossary On
Versions: 1 2 3 4 5 6 7 8 9 10 11 12 13 14 15 16 17 18 19 20 21 22 23 24 25 26 27 28 29 30 31 32 33 34 35 36 37 38 39 40 41 42 43 44 45 46 47 48 49 50
000
ASUS43 KDTX 252001
RWRMI
MICHIGAN HOURLY REGIONAL WEATHER ROUNDUP
NATIONAL WEATHER SERVICE DETROIT/PONTIAC MI
400 PM EDT THU MAY 25 2017

NOTE: "FAIR" INDICATES FEW OR NO CLOUDS BELOW 12,000 FEET WITH NO
SIGNIFICANT WEATHER AND/OR OBSTRUCTION TO VISIBILITY.

MIZ047>049-052>055-059>063-066>070-074>076-081>083-252100-
SOUTHEAST LOWER MICHIGAN

CITY           SKY/WX    TMP DP  RH WIND       PRES   REMARKS
ADRIAN         CLOUDY    61  57  87 N13       29.51S
ALMA           CLOUDY    63  57  79 NW9G20    29.55S
ANN ARBOR      CLOUDY    61  57  87 NW12      29.50R
BAD AXE        DRIZZLE   56  56  97 NE5       29.53R
CARO           DRIZZLE   56  55  96 NW10      29.52S
DETROIT CITY   LGT RAIN  59  58  96 CALM      29.48S FOG
DETROIT        LGT RAIN  61  59  93 NW9       29.49S FOG
FLINT          CLOUDY    57  55  93 N13       29.52R
GROSSE ILE     LGT RAIN  60  58  93 N3        29.47S
HILLSDALE      CLOUDY    61  55  82 N8        29.52S
HOWELL         CLOUDY    60  55  82 N9        29.51S

CITY           SKY/WX    TMP DP  RH WIND       PRES   REMARKS
JACKSON        CLOUDY    62  56  80 N9        29.53R
LAMBERTVILLE   CLOUDY    60  58  94 N7        29.49S FOG
LANSING        CLOUDY    63  54  72 N10       29.54S
LAPEER         DRIZZLE   58  57  96 N3        29.51R
MASON          CLOUDY    60  56  87 N10G16    29.53S
MONROE         RAIN      60  59  96 N7        29.48S
MT. CLEMENS    LGT RAIN  58  58 100 E2        29.48R FOG
PONTIAC        CLOUDY    60  56  86 N7        29.49S
PORT HOPE        N/A     50  49  96 NE10      29.52S
PORT HURON     RAIN      59  55  88 CALM      29.49R
TRI CITIES     CLOUDY    59  56  89 N14       29.54S
MIDLAND        CLOUDY    61  54  77 N5        29.54S
TROY           CLOUDY    61  57  88 NW7       29.51R FOG
SAGINAW HB     CLOUDY    57  54  88 N10       29.53S
$$
MIZ043>046-050>051-056>058-064>065-071>073-077>080-252100-
SOUTHWEST LOWER MICHIGAN

CITY           SKY/WX    TMP DP  RH WIND       PRES   REMARKS
BATTLE CREEK   CLOUDY    65  57  75 NW9       29.55S
BENTON HARBOR  CLOUDY    54  50  86 NW8       29.61R
BIG RAPIDS     CLOUDY    62  53  72 N8        29.57S
COLDWATER      CLOUDY    62  58  86 N6        29.55R
FREMONT        CLOUDY    65  54  67 N10G16    29.58S
HOLLAND        CLOUDY    67  56  67 NW8       29.58S
GRAND RAPIDS   PTSUNNY   65  57  75 N12       29.56S
IONIA          CLOUDY    63  55  73 N8        29.54S
KALAMAZOO      CLOUDY    63  54  72 N10       29.57R
LUDINGTON      PTSUNNY   66  55  68 N8        29.59S
MARSHALL       CLOUDY    63  56  78 CALM      29.54S
MOUNT PLEASANT CLOUDY    61  54  79 NW9       29.55R
MUSKEGON       PTSUNNY   69  55  60 NW10      29.58S
SOUTH HAVEN    CLOUDY    60  55  83 NW10      29.60R
$$
MIZ016>042-252100-
NORTHERN LOWER MICHIGAN

CITY           SKY/WX    TMP DP  RH WIND       PRES   REMARKS
ALPENA         LGT RAIN  54  54 100 E10       29.61S FOG
BEAVER ISLAND  LGT RAIN  58  54  85 E8G20     29.68R
BELLAIRE       CLOUDY    60  53  77 N9        29.62S
CADILLAC       LGT RAIN  57  54  88 N9        29.59S
CHARLEVOIX     CLOUDY    57  56  97 NE7       29.67S
FRANKFORT      CLOUDY    60  52  74 N7G18     29.63S
GAYLORD          N/A     56  52  86 NE12      29.62R
GRAYLING       CLOUDY    58  53  85 NE12      29.60S
HARBOR SPRINGS DRIZZLE   57  56  98 NE12G18   29.64S
HOUGHTON LAKE  CLOUDY    58  52  80 N13       29.59R
MANISTEE       CLOUDY    63  54  72 NW13      29.60F
OSCODA         DRIZZLE   51  50  97 N6        29.56S
PELLSTON       CLOUDY    57  53  86 NE14      29.66S FOG
ROGERS CITY    RAIN      49  48  98 NE5       29.64S VSB 1/2
TRAVERSE CITY  CLOUDY    60  53  77 N10       29.61S
$$
MIZ007>008-015-252100-
EASTERN UPPER MICHIGAN

CITY           SKY/WX    TMP DP  RH WIND       PRES   REMARKS
KINROSS        CLOUDY    59  53  80 NE13      29.68S
MACKINAC ISLAN LGT RAIN  54  54 100 NE10G16   29.66S
NEWBERRY       CLOUDY    64  52  65 NE7G16    29.67S
S. S. MARIE    CLOUDY    63  52  67 E7        29.67S
MUNISING         N/A     46  43  89 NE14      29.72S
$$
MIZ004>006-011>014-085-252100-
CENTRAL UPPER MICHIGAN

CITY           SKY/WX    TMP DP  RH WIND       PRES   REMARKS
MANISTIQUE     CLOUDY    65  48  53 NE7       29.66S
ESCANABA       PTSUNNY   69  50  50 NE9       29.66F
MENOMINEE      SUNNY     66  51  58 E13       29.67F
SAWYER-GWINN   SUNNY     64  46  52 N12G21    29.71F
$$
MIZ001>003-009>011-084-252100-
WESTERN UPPER MICHIGAN

CITY           SKY/WX    TMP DP  RH WIND       PRES   REMARKS
IRON MOUNTAIN  MOSUNNY   72  45  37 NE6       29.67S
HOUGHTON       SUNNY     64  46  52 E9        29.73S
COPPER HARBOR    N/A     47  42  83 CALM      29.73F
IRONWOOD       PTSUNNY   66  47  50 NE9       29.69F
$$

ABBREVIATIONS USED IN REMARKS
   TC - TEMPERATURE IN CELSIUS
  WCI - WIND CHILL INDEX
   HX - HEAT INDEX
  VSB - VISIBILITY





USA.gov is the U.S. government's official web portal to all federal, state and local government web resources and services.